Content
SEND FEEDBACK

Daily
Averages
Monthly
Summary
United States of America

ASHEVILLE, NORTH CAROLINA


Home > North America > United States > North Carolina
Elevation: 2240 feet     Latitude: 35 36N     Longitude: 082 32W

WEATHER
 
SELECT A DAY
Number of Records: 225,738;   Date Range: 1/1/95 - 7/26/14
 
SHARE

PRINT THIS DATA

[ ← Previous Day ]
WEATHER ALMANAC - JANUARY 9, 2013
[ Next Day → ]
[ °C ]   °F
Weather ElementAverageHighLow
Temperature46.5 °F50 °F (3:54 pm)44.1 °F (12:54 am)
Dewpoint44 °F46.4 °F (9:43 am)39 °F (12:54 am)
Humidity91 %100 % (9:05 am)81 % (1:13 am)
Barometer30.42 in30.48 in (11:54 pm)30.36 in (4:54 am)
Wind Speed4 mph8.1 mph (7:29 am)
Weather ElementAverage
Visibility6.9 mi
Wind DirectionSW (230.5 °)

Weather ElementTotal
Precipitation---
Heating Degree Days18 (Base 65)
Averaged from 38 records on January 9, 2013
WEATHER CONDITIONS BREAKOUT
WIND DIRECTION BREAKOUT
WEATHER BY HOUR - JANUARY 9, 2013
[ °C ]   °F
Local TimeTemperatureDewpointHumidityBarometerVisibilityWind DirectionWind SpeedGust SpeedPrecipitationEventsConditions
12:54 AM44.1 °F39.0 °F82 %30.38 in10.0 miCalmOvercast
1:13 AM44.6 °F39.2 °F81 %30.38 in10.0 miCalmOvercast
1:54 AM44.1 °F39.9 °F85 %30.38 in10.0 miCalmOvercast
2:54 AM45.0 °F41.0 °F86 %30.37 in10.0 miCalmOvercast
3:54 AM46.0 °F42.1 °F86 %30.37 in10.0 miCalmOvercast
4:54 AM46.0 °F43.0 °F89 %30.36 in10.0 miCalmOvercast
5:54 AM45.0 °F42.1 °F90 %30.37 in10.0 miNNW (340°)4.6 mphOvercast
6:54 AM45.0 °F41.0 °F86 %30.39 in9.0 miNNW (330°)6.9 mphOvercast
7:29 AM44.6 °F41.0 °F87 %30.40 in8.0 miNNW (340°)8.1 mphOvercast
7:54 AM44.1 °F42.1 °F93 %30.42 in1.0 miNorth (350°)6.9 mphOvercast
8:01 AM44.6 °F42.8 °F93 %30.42 in1.0 miNorth (350°)5.8 mphOvercast
8:52 AM44.6 °F42.8 °F93 %30.43 in0.5 miNNW (340°)5.8 mphFogFog
8:54 AM44.1 °F43.0 °F96 %30.45 in0.5 miNNW (340°)6.9 mphFogFog
9:05 AM44.6 °F44.6 °F100 %30.44 in0.2 miNNW (330°)8.1 mphFogFog
9:25 AM44.6 °F44.6 °F100 %30.44 in0.5 miNNW (330°)6.9 mphFogFog
9:35 AM46.4 °F44.6 °F93 %30.44 in0.2 miNorth (350°)3.5 mphFogFog
9:43 AM46.4 °F46.4 °F100 %30.44 in1.0 miCalmMist
9:54 AM46.9 °F46.0 °F97 %30.45 in1.0 miNW (310°)5.8 mphOvercast
10:09 AM46.4 °F44.6 °F93 %30.45 in0.8 miNorth (350°)6.9 mphOvercast
10:22 AM46.4 °F46.4 °F100 %30.45 in1.0 miNorth (360°)3.5 mphOvercast
10:33 AM46.4 °F46.4 °F100 %30.45 in3.0 miCalmOvercast
10:46 AM46.4 °F44.6 °F93 %30.45 in7.0 miNW (320°)3.5 mphOvercast
10:54 AM46.9 °F46.0 °F97 %30.45 in8.0 miCalmOvercast
11:41 AM48.2 °F46.4 °F93 %30.44 in9.0 miNNW (330°)4.6 mphOvercast
11:54 AM48.0 °F45.0 °F89 %30.43 in9.0 miNNW (340°)4.6 mphOvercast
12:11 PM48.2 °F44.6 °F87 %30.43 in10.0 miNW (320°)5.8 mphMostly Cloudy
12:54 PM48.9 °F46.0 °F90 %30.41 in10.0 miNNW (330°)5.8 mphMostly Cloudy
1:54 PM48.9 °F46.0 °F90 %30.40 in10.0 miNNW (330°)8.1 mph0.00 inOvercast
2:54 PM48.9 °F46.0 °F90 %30.40 in10.0 miNNW (340°)5.8 mphOvercast
3:54 PM50.0 °F46.0 °F86 %30.40 in10.0 miNNW (330°)8.1 mphOvercast
4:54 PM50.0 °F46.0 °F86 %30.41 in10.0 miNorth (350°)3.5 mphOvercast
5:54 PM48.9 °F45.0 °F86 %30.42 in10.0 miNNW (340°)4.6 mphMostly Cloudy
6:54 PM48.0 °F45.0 °F89 %30.41 in10.0 miCalmPartly Cloudy
7:54 PM48.0 °F45.0 °F89 %30.43 in10.0 miNNW (340°)5.8 mphClear
8:54 PM48.0 °F45.0 °F89 %30.44 in10.0 miNorth (360°)8.1 mphClear
9:54 PM48.0 °F45.0 °F89 %30.45 in10.0 miNW (310°)5.8 mphClear
10:54 PM46.9 °F45.0 °F93 %30.47 in10.0 miCalmClear
11:54 PM46.0 °F44.1 °F93 %30.48 in10.0 miCalmPartly Cloudy
Hourly data recorded from KAVL, located miles away from Asheville, North Carolina







STORIES FROM OUR PARTNERS